When you browse on this site, cookies collect data to enhance your experience and personalize the content and advertising you see.
Visit our Privacy Policy to learn more. By continuing to use the site, you agree to this use of cookies and data.
  • In Romania
  • List of Countries
  • For 7 days
  • Water Temperature
  • Weather Map
  • Weather Widgets
  • user-avatar
    Login

    Hourly Weather Ballycastle

    Today, 18 October, Friday

    Time Temperature Precipitation Wind Pressure Humidity
    00:00 +6°C° 0 mm 4 mps 741 mmHg 91%
    01:00 +6°C° 0 mm 4 mps 741 mmHg 91%
    02:00 +6°C° 0 mm 4 mps 741 mmHg 91%
    03:00 +5°C° 0 mm 4 mps 741 mmHg 90%
    04:00 +5°C° 0 mm 3 mps 741 mmHg 90%
    05:00 +5°C° 0 mm 3 mps 741 mmHg 89%
    06:00 +7°C° 0 mm 3 mps 741 mmHg 88%
    07:00 +7°C° 0 mm 3 mps 741 mmHg 87%
    08:00 +8°C° 0 mm 3 mps 741 mmHg 86%
    09:00 +9°C° 0 mm 3 mps 741 mmHg 85%
    10:00 +10°C° 0.2 mm 4 mps 741 mmHg 84%
    11:00 +11°C° 0.2 mm 4 mps 741 mmHg 84%
    12:00 +10°C° 0.2 mm 5 mps 741 mmHg 83%
    13:00 +10°C° 0.2 mm 5 mps 741 mmHg 83%
    14:00 +10°C° 0.2 mm 5 mps 741 mmHg 83%
    15:00 +11°C° 0.2 mm 4 mps 741 mmHg 83%
    16:00 +10°C° 0.1 mm 4 mps 741 mmHg 85%
    17:00 +10°C° 0.1 mm 4 mps 741 mmHg 87%
    18:00 +8°C° 0.1 mm 4 mps 742 mmHg 88%
    19:00 +8°C° 0 mm 4 mps 742 mmHg 88%
    20:00 +8°C° 0 mm 4 mps 742 mmHg 87%
    21:00 +8°C° 0 mm 4 mps 743 mmHg 87%
    22:00 +7°C° 0.1 mm 4 mps 743 mmHg 87%
    23:00 +7°C° 0.1 mm 4 mps 743 mmHg 88%

    Tomorrow, 19 October, Saturday

    Time Temperature Precipitation Wind Pressure Humidity
    00:00 +7°C° 0.1 mm 4 mps 744 mmHg 89%
    01:00 +7°C° 0.2 mm 5 mps 744 mmHg 90%
    02:00 +7°C° 0.2 mm 5 mps 744 mmHg 91%
    03:00 +7°C° 0.2 mm 5 mps 744 mmHg 92%
    04:00 +8°C° 0.4 mm 5 mps 745 mmHg 91%
    05:00 +8°C° 0.4 mm 5 mps 745 mmHg 91%
    06:00 +9°C° 0.4 mm 5 mps 746 mmHg 90%
    07:00 +9°C° 0.3 mm 5 mps 746 mmHg 89%
    08:00 +9°C° 0.3 mm 5 mps 746 mmHg 88%
    09:00 +10°C° 0.3 mm 6 mps 747 mmHg 87%
    10:00 +10°C° 0.2 mm 6 mps 747 mmHg 85%
    11:00 +10°C° 0.2 mm 6 mps 748 mmHg 83%
    12:00 +11°C° 0.2 mm 7 mps 748 mmHg 81%
    13:00 +11°C° 0 mm 7 mps 748 mmHg 81%
    14:00 +10°C° 0 mm 6 mps 749 mmHg 81%
    15:00 +10°C° 0 mm 6 mps 749 mmHg 81%
    16:00 +10°C° 0 mm 6 mps 750 mmHg 82%
    17:00 +9°C° 0 mm 5 mps 750 mmHg 84%
    18:00 +8°C° 0 mm 4 mps 751 mmHg 85%
    19:00 +8°C° 0 mm 5 mps 751 mmHg 84%
    20:00 +8°C° 0 mm 5 mps 752 mmHg 83%
    21:00 +8°C° 0 mm 5 mps 753 mmHg 82%
    22:00 +7°C° 0 mm 4 mps 753 mmHg 82%
    23:00 +7°C° 0 mm 4 mps 754 mmHg 82%

    Day after tomorrow, 20 October, Sunday

    Time Temperature Precipitation Wind Pressure Humidity
    00:00 +7°C° 0 mm 4 mps 754 mmHg 82%
    01:00 +7°C° 0 mm 4 mps 755 mmHg 82%
    02:00 +7°C° 0 mm 4 mps 755 mmHg 82%
    03:00 +7°C° 0 mm 5 mps 755 mmHg 82%
    04:00 +7°C° 0.1 mm 5 mps 756 mmHg 82%
    05:00 +7°C° 0.1 mm 6 mps 757 mmHg 83%
    06:00 +7°C° 0.1 mm 6 mps 757 mmHg 83%
    07:00 +7°C° 0 mm 6 mps 758 mmHg 82%
    08:00 +7°C° 0 mm 6 mps 758 mmHg 80%
    09:00 +6°C° 0 mm 7 mps 759 mmHg 78%
    10:00 +6°C° 0 mm 7 mps 759 mmHg 75%
    11:00 +6°C° 0 mm 7 mps 760 mmHg 71%
    12:00 +8°C° 0 mm 7 mps 760 mmHg 68%
    13:00 +6°C° 0 mm 7 mps 760 mmHg 69%
    14:00 +6°C° 0 mm 7 mps 760 mmHg 69%
    15:00 +6°C° 0 mm 7 mps 761 mmHg 70%
    16:00 +6°C° 0 mm 7 mps 761 mmHg 71%
    17:00 +6°C° 0 mm 7 mps 761 mmHg 72%
    18:00 +5°C° 0 mm 6 mps 762 mmHg 73%
    19:00 +5°C° 0 mm 6 mps 762 mmHg 73%
    20:00 +6°C° 0 mm 5 mps 763 mmHg 73%
    21:00 +6°C° 0 mm 5 mps 763 mmHg 72%
    22:00 +6°C° 0 mm 4 mps 763 mmHg 72%
    23:00 +6°C° 0 mm 4 mps 763 mmHg 72%

    21 October, Monday

    Time Temperature Precipitation Wind Pressure Humidity
    00:00 +6°C° 0 mm 4 mps 763 mmHg 72%
    01:00 +5°C° 0 mm 4 mps 764 mmHg 73%
    02:00 +5°C° 0 mm 4 mps 764 mmHg 75%
    03:00 +5°C° 0 mm 4 mps 764 mmHg 76%
    04:00 +5°C° 0 mm 4 mps 764 mmHg 76%
    05:00 +5°C° 0 mm 4 mps 764 mmHg 76%
    06:00 +5°C° 0 mm 4 mps 764 mmHg 76%
    07:00 +6°C° 0 mm 4 mps 764 mmHg 75%
    08:00 +6°C° 0 mm 4 mps 765 mmHg 74%
    09:00 +7°C° 0 mm 3 mps 765 mmHg 73%
    10:00 +7°C° 0 mm 4 mps 765 mmHg 72%
    11:00 +8°C° 0 mm 4 mps 765 mmHg 70%
    12:00 +8°C° 0 mm 4 mps 765 mmHg 69%
    13:00 +9°C° 0 mm 3 mps 765 mmHg 69%
    14:00 +9°C° 0 mm 3 mps 765 mmHg 70%
    15:00 +9°C° 0 mm 3 mps 765 mmHg 71%
    16:00 +9°C° 0 mm 2 mps 765 mmHg 74%
    17:00 +8°C° 0 mm 2 mps 765 mmHg 77%
    18:00 +7°C° 0 mm 2 mps 765 mmHg 81%
    19:00 +7°C° 0 mm 2 mps 765 mmHg 82%
    20:00 +5°C° 0 mm 3 mps 765 mmHg 84%
    21:00 +5°C° 0 mm 3 mps 765 mmHg 85%
    22:00 +5°C° 0 mm 3 mps 765 mmHg 85%
    23:00 +5°C° 0 mm 4 mps 764 mmHg 86%

    22 October, Tuesday

    Time Temperature Precipitation Wind Pressure Humidity
    00:00 +5°C° 0 mm 4 mps 764 mmHg 86%
    01:00 +4°C° 0 mm 4 mps 764 mmHg 86%
    02:00 +4°C° 0 mm 4 mps 763 mmHg 85%
    03:00 +4°C° 0 mm 4 mps 763 mmHg 85%
    04:00 +3°C° 0 mm 4 mps 763 mmHg 85%
    05:00 +3°C° 0 mm 4 mps 763 mmHg 85%
    06:00 +2°C° 0 mm 5 mps 763 mmHg 85%
    07:00 +2°C° 0 mm 5 mps 763 mmHg 84%
    08:00 +3°C° 0 mm 5 mps 762 mmHg 84%
    09:00 +3°C° 0 mm 5 mps 762 mmHg 83%
    10:00 +5°C° 0 mm 5 mps 762 mmHg 80%
    11:00 +5°C° 0 mm 6 mps 762 mmHg 78%
    12:00 +7°C° 0 mm 6 mps 762 mmHg 75%
    13:00 +7°C° 0 mm 6 mps 761 mmHg 75%
    14:00 +8°C° 0 mm 6 mps 761 mmHg 76%
    15:00 +8°C° 0 mm 7 mps 760 mmHg 76%
    16:00 +6°C° 0 mm 7 mps 760 mmHg 78%
    17:00 +6°C° 0 mm 7 mps 759 mmHg 80%
    18:00 +5°C° 0 mm 7 mps 759 mmHg 83%
    19:00 +5°C° 0 mm 7 mps 759 mmHg 84%
    20:00 +5°C° 0 mm 7 mps 759 mmHg 86%
    21:00 +5°C° 0 mm 7 mps 758 mmHg 87%
    22:00 +5°C° 0 mm 7 mps 758 mmHg 86%
    23:00 +4°C° 0 mm 8 mps 758 mmHg 85%

    23 October, Wednesday

    Time Temperature Precipitation Wind Pressure Humidity
    00:00 +4°C° 0 mm 8 mps 757 mmHg 84%
    01:00 +4°C° 0 mm 8 mps 757 mmHg 83%
    02:00 +5°C° 0 mm 8 mps 756 mmHg 83%
    03:00 +5°C° 0 mm 7 mps 756 mmHg 83%
    04:00 +5°C° 0 mm 8 mps 755 mmHg 83%
    05:00 +5°C° 0 mm 8 mps 755 mmHg 83%
    06:00 +5°C° 0 mm 8 mps 754 mmHg 82%
    07:00 +6°C° 0 mm 9 mps 754 mmHg 83%
    08:00 +6°C° 0 mm 9 mps 753 mmHg 84%
    09:00 +7°C° 0 mm 10 mps 753 mmHg 85%
    10:00 +7°C° 0.1 mm 10 mps 752 mmHg 84%
    11:00 +8°C° 0.1 mm 10 mps 752 mmHg 83%
    12:00 +8°C° 0.1 mm 11 mps 751 mmHg 82%
    13:00 +8°C° 0.2 mm 11 mps 751 mmHg 84%
    14:00 +8°C° 0.2 mm 11 mps 751 mmHg 85%
    15:00 +8°C° 0.2 mm 11 mps 750 mmHg 87%
    16:00 +8°C° 0.1 mm 11 mps 750 mmHg 88%
    17:00 +8°C° 0.1 mm 10 mps 749 mmHg 88%
    18:00 +8°C° 0.1 mm 9 mps 749 mmHg 89%
    19:00 +8°C° 0.1 mm 9 mps 749 mmHg 90%
    20:00 +8°C° 0.1 mm 9 mps 749 mmHg 91%
    21:00 +8°C° 0.1 mm 9 mps 749 mmHg 92%
    22:00 +9°C° 0.2 mm 8 mps 749 mmHg 92%
    23:00 +9°C° 0.2 mm 7 mps 749 mmHg 92%
    Show more